Theta_e
283 278 275 279 280 281 279 278 277 281 285 284 283 284 287 289 287 290 291 292 293 294 297 296 296 298 298 300 305 310 320 324 325 326 325 323 317 317 315 315 314 311 310 307
278 275 276 279 281 281 280 278 277 280 284 282 282 282 286 289 289 288 290 292 293 294 296 296 295 296 297 300 302 304 316 322 324 325 325 324 317 315 311 310 310 310 308 306
272 276 277 276 276 274 272 270 277 279 283 285 283 281 283 287 289 291 291 291 293 292 294 295 296 296 296 295 299 302 310 320 323 324 324 313 307 302 302 305 306 307 306 305
273 275 274 274 273 273 269 277 276 277 277 275 283 274 282 286 287 289 290 289 290 291 288 288 288 289 288 290 294 301 308 317 322 323 319 312 309 304 305 305 305 305 305 305
269 271 271 272 272 274 272 277 275 274 273 277 278 275 278 284 283 286 287 288 284 285 286 285 286 288 289 290 290 293 304 313 319 319 317 313 309 310 307 304 303 303 304 304
272 275 274 272 274 275 277 274 274 274 276 272 276 275 276 279 282 286 288 283 284 284 285 285 286 287 287 288 289 291 296 307 313 316 313 311 308 307 301 301 300 301 302 302
270 271 274 275 270 274 273 271 266 267 270 270 277 274 277 283 284 285 283 281 282 282 282 282 283 284 285 285 287 289 290 298 305 310 309 308 307 305 301 300 300 300 300 300
263 261 270 274 271 268 271 270 265 260 264 268 276 273 274 280 281 281 281 280 280 279 280 280 280 281 282 283 284 285 287 289 296 301 302 301 300 301 300 299 300 300 300 301
261 264 272 274 274 275 268 268 272 267 268 265 275 279 282 281 280 279 278 277 276 276 276 276 278 279 280 281 282 283 284 287 289 292 296 296 296 296 296 297 298 299 299 300
268 262 271 273 274 274 272 274 265 267 260 260 272 271 270 276 276 276 276 275 275 275 274 274 275 276 278 279 280 281 282 284 286 289 293 295 295 295 294 296 296 296 298 298
263 263 267 271 266 267 269 266 268 268 267 262 261 268 278 276 275 274 274 275 274 274 274 273 274 274 275 277 277 278 279 280 282 285 288 293 294 294 294 295 295 296 296 297
269 265 261 264 269 274 271 268 268 262 261 265 266 267 279 277 276 275 275 275 275 274 274 273 273 273 273 274 275 275 276 277 280 282 284 286 288 290 292 293 293 294 295 296
271 260 253 260 263 269 261 269 269 269 269 264 262 266 279 276 275 275 275 275 275 274 273 272 272 272 272 273 273 273 274 275 277 279 281 282 284 285 286 289 292 293 294 295
273 255 258 255 261 265 260 264 268 265 262 264 265 268 273 273 273 274 274 275 274 274 273 273 272 271 271 272 272 272 272 274 276 277 278 279 281 283 284 286 288 292 293 294
268 257 256 263 266 266 265 263 264 265 269 264 268 270 271 274 273 273 274 275 274 274 274 274 273 272 272 272 272 272 272 273 274 275 275 277 280 282 283 284 285 287 291 292
265 260 258 262 267 267 264 265 264 269 270 269 270 269 275 276 275 273 273 273 273 273 273 274 274 274 273 273 272 272 271 271 273 273 273 275 277 279 280 283 284 285 286 286
265 258 252 254 265 263 253 260 263 268 269 267 264 268 274 273 273 272 272 272 272 273 273 273 273 273 273 272 274 272 271 271 271 272 273 273 275 276 277 280 282 283 284 285
260 256 254 255 255 247 261 269 267 268 269 270 270 271 271 271 273 274 274 273 273 273 273 273 273 273 272 272 272 273 272 271 271 270 271 272 273 274 275 276 278 280 283 284
270 259 252 252 244 260 263 266 264 262 261 268 268 271 271 270 270 270 274 274 273 273 274 273 273 274 272 271 272 272 270 269 268 268 269 270 272 273 274 274 275 277 279 283
270 265 258 246 249 249 259 266 270 267 260 267 270 270 270 269 263 266 270 274 273 274 274 273 272 272 271 270 270 270 268 267 266 267 268 269 270 272 272 273 274 276 277 279
252 250 255 253 253 256 265 269 268 255 260 269 271 271 271 268 268 269 273 272 274 274 273 272 272 271 270 270 269 268 267 265 265 266 267 268 269 270 271 272 274 274 275 277
260 254 251 247 246 253 267 270 265 266 264 271 271 272 272 272 271 272 273 273 273 271 271 271 270 270 270 269 268 267 266 266 265 265 265 266 267 269 269 270 271 273 274 274
261 264 259 261 261 265 269 271 273 269 271 272 270 273 273 272 270 270 269 270 269 269 270 270 268 268 265 267 268 266 266 265 264 263 263 264 265 267 267 268 268 269 272 272
265 266 264 264 264 268 271 272 272 273 273 275 275 274 272 271 270 270 270 270 270 270 268 268 267 266 265 265 267 266 265 264 262 260 261 262 262 263 265 266 268 268 269 270
268 267 262 265 270 271 272 273 274 274 274 274 274 273 271 270 270 270 269 269 268 268 267 266 265 265 265 265 263 261 263 261 260 260 260 261 262 262 263 264 265 267 269 270
271 269 265 265 271 269 271 273 273 272 273 273 272 271 271 270 269 269 267 266 266 265 265 264 263 263 263 263 262 262 260 260 259 259 259 259 260 260 260 261 262 266 269 271
Wind_Speed
6 6 7 15 11 16 20 21 27 33 20 15 23 24 29 15 11 19 20 18 17 15 16 11 11 10 11 11 14 16 19 20 15 14 14 12 13 11 9 10 14 16 14 15
8 4 20 18 18 18 19 25 32 30 18 14 28 27 31 27 22 12 18 21 19 18 17 14 12 13 13 17 16 15 20 20 19 15 15 13 12 10 10 9 12 14 15 14
5 9 18 17 14 26 22 17 25 28 26 20 20 27 26 25 18 18 15 14 17 14 20 21 17 15 14 12 13 15 18 20 19 20 12 5 5 4 5 9 9 12 15 16
6 13 18 16 11 21 19 10 26 26 22 21 2 21 22 21 19 16 12 10 14 13 12 12 13 13 11 11 10 14 17 20 21 21 17 19 17 14 12 12 10 12 16 16
15 12 18 18 16 19 13 20 22 27 22 22 27 17 20 15 26 16 11 11 8 11 12 15 15 15 14 15 15 9 10 18 20 20 20 17 17 12 9 10 12 12 12 14
18 6 7 11 21 15 18 22 25 13 11 17 20 14 18 24 22 23 10 9 10 12 14 16 16 16 17 17 18 16 9 11 17 19 20 22 20 15 10 12 11 11 9 10
6 7 13 5 21 25 22 21 8 5 7 14 10 9 18 12 15 11 9 14 15 15 17 18 20 20 20 22 21 18 19 7 6 13 16 18 16 16 16 15 12 13 10 9
10 9 16 19 20 11 14 9 6 8 9 11 14 8 5 15 18 19 18 15 16 19 17 18 19 18 19 21 21 21 21 19 12 2 7 7 7 7 8 11 10 10 11 11
6 6 18 8 16 5 13 8 14 8 18 9 6 1 11 20 19 19 18 18 19 18 17 19 19 18 19 20 21 20 20 19 18 13 1 4 6 7 7 9 9 9 8 9
5 11 5 17 5 9 8 12 8 6 8 10 9 10 13 23 18 18 20 19 18 16 17 18 18 19 18 17 17 18 19 18 17 16 10 1 5 6 6 7 8 8 8 8
3 4 10 9 7 8 7 9 5 6 5 6 10 4 12 16 16 17 17 17 17 17 17 16 16 17 17 17 18 18 19 20 19 18 16 10 5 1 7 7 8 9 8 9
3 4 6 13 12 9 9 9 5 5 6 9 8 6 16 15 13 13 13 13 15 16 15 15 16 17 18 19 19 18 18 18 18 17 16 15 14 11 5 3 7 7 9 9
3 3 6 8 6 2 2 10 13 13 10 11 8 7 16 14 13 12 13 12 12 15 16 15 15 15 15 16 16 17 18 18 17 16 16 16 16 14 13 10 6 5 8 9
5 2 8 7 12 11 7 13 18 7 7 11 14 23 16 14 13 16 15 13 11 12 15 15 14 14 15 16 17 17 17 17 17 16 16 17 18 16 13 12 12 5 6 8
5 5 6 11 15 17 16 14 12 13 15 6 15 16 11 10 10 11 11 13 12 14 14 13 15 14 14 15 16 16 16 17 16 16 17 17 16 15 16 15 14 12 6 3
1 6 2 14 15 15 18 17 10 9 8 8 12 7 9 8 5 8 12 12 13 13 13 14 14 15 16 17 15 15 16 16 15 16 17 16 16 16 16 16 16 14 14 11
4 3 3 9 8 12 8 9 6 5 7 3 4 5 7 9 6 6 7 10 12 12 11 11 11 11 12 13 14 13 14 14 15 16 16 17 17 17 16 15 15 15 13 11
6 5 2 6 6 5 10 5 7 11 8 6 7 7 5 8 5 4 2 4 7 10 10 10 9 9 10 11 12 11 14 14 15 16 16 17 17 16 16 15 16 16 12 10
14 5 2 2 4 10 13 7 8 8 10 7 6 7 6 5 3 7 5 3 3 4 7 7 8 7 8 10 11 11 13 14 15 16 16 16 16 15 15 16 15 15 13 11
9 3 5 4 2 8 9 6 3 5 12 7 7 8 7 2 2 5 3 3 2 2 3 4 6 5 7 7 9 10 11 12 13 15 14 14 14 14 14 14 14 12 12 12
1 3 8 7 6 12 13 12 4 6 11 7 7 7 6 5 7 5 3 3 3 3 3 1 3 5 6 8 10 10 8 9 12 12 12 12 12 13 13 13 11 11 10 11
9 6 5 4 2 13 6 4 8 10 4 5 6 8 8 9 7 5 6 5 5 4 3 1 3 5 7 7 9 10 9 8 9 11 11 11 11 10 10 12 11 11 9 9
7 11 7 13 12 7 8 8 8 5 8 11 5 9 11 8 8 7 6 6 4 3 2 1 2 4 3 2 4 8 8 9 10 9 9 9 10 9 11 11 10 8 8 7
6 6 8 2 9 17 17 12 10 11 12 15 13 9 8 9 6 6 6 5 4 3 2 1 2 3 3 1 4 3 3 6 10 12 10 8 7 8 7 7 7 7 6 7
7 5 5 13 18 18 17 18 18 15 11 10 7 8 11 8 8 6 5 4 3 2 1 2 4 6 7 5 3 1 2 3 8 8 8 8 6 7 7 7 7 7 7 8
12 20 8 14 14 10 13 10 8 10 9 10 11 8 5 6 5 3 3 3 2 1 1 3 4 5 6 5 7 8 4 7 9 10 8 7 7 7 8 8 8 10 14 15
Wind_Direction
312 37 356 337 324 308 303 289 281 275 281 291 277 269 270 274 253 267 262 264 262 254 260 259 252 240 227 224 215 204 198 199 188 192 192 189 192 191 189 190 182 177 179 182
12 26 355 340 344 330 306 289 276 289 292 253 270 263 271 267 267 248 265 272 269 267 270 268 252 244 235 232 225 205 204 195 191 193 197 202 191 197 188 181 181 183 178 175
342 345 336 343 6 353 323 298 300 285 289 274 294 284 268 270 265 267 268 272 277 260 262 261 263 261 258 240 226 213 200 198 196 194 186 152 127 95 160 187 182 182 176 179
358 328 325 326 4 348 315 332 313 301 302 266 200 273 268 280 279 287 278 275 269 311 351 1 359 3 351 329 288 227 199 194 194 187 181 179 182 183 198 191 185 183 185 187
317 312 330 354 339 332 294 298 294 285 274 274 250 261 280 276 278 270 286 291 33 9 3 1 356 354 347 347 339 292 224 199 190 187 186 185 190 195 180 177 176 186 190 188
316 292 13 298 339 311 307 307 290 249 234 244 253 233 258 270 268 270 227 71 33 20 12 10 2 360 357 356 356 350 315 210 196 186 188 192 191 182 168 169 175 185 185 183
356 306 9 327 327 328 355 348 328 320 248 250 204 209 255 276 352 332 30 43 33 26 17 10 9 2 360 360 359 357 356 336 221 192 193 195 191 186 176 172 177 177 183 188
344 339 10 321 329 308 324 336 316 299 301 306 291 211 60 39 35 45 50 43 34 26 16 12 6 4 0 358 359 1 1 2 353 221 190 178 163 178 175 175 175 185 189 190
332 264 322 331 328 345 319 356 289 269 256 252 233 280 54 20 28 33 32 32 28 22 12 8 6 4 1 2 359 1 360 359 2 349 9 150 151 149 160 169 174 181 179 184
275 296 307 331 311 15 44 346 352 330 317 319 315 62 9 359 17 21 25 23 18 16 14 8 5 2 0 1 358 2 5 3 357 358 349 267 171 150 150 162 169 169 176 175
208 174 301 323 346 26 360 355 1 287 305 324 331 72 34 34 19 15 16 12 12 11 11 8 2 2 0 3 2 5 6 3 4 2 3 9 354 273 161 170 177 176 173 174
231 239 298 306 301 144 5 311 325 335 315 291 255 256 36 45 28 17 13 12 8 6 7 9 7 3 4 3 3 7 7 6 4 1 7 14 19 16 356 270 178 179 183 183
284 298 320 330 330 7 265 324 317 307 269 265 278 276 9 14 6 8 2 6 5 11 4 7 11 9 6 4 6 7 9 7 5 5 10 12 16 14 8 356 294 211 182 187
43 142 169 218 261 291 283 296 299 274 262 277 262 296 337 345 355 358 359 357 5 7 12 6 9 7 6 6 8 7 10 9 7 11 15 15 11 8 3 358 357 282 222 192
139 232 195 242 264 278 275 273 277 290 295 241 308 302 355 358 360 354 349 351 0 5 5 9 8 7 7 8 11 10 9 9 8 15 18 14 6 9 8 6 4 3 351 268
234 265 161 284 259 276 290 290 259 271 320 324 323 348 0 324 353 358 350 351 0 5 3 4 8 4 4 4 7 8 8 9 10 17 17 11 9 10 9 7 9 11 10 4
228 193 62 265 329 316 327 219 212 242 249 239 307 272 319 339 329 343 348 343 349 356 356 0 5 3 3 357 356 7 5 3 13 17 15 12 8 9 8 4 6 6 7 2
188 131 124 267 5 338 237 210 190 233 265 228 260 275 272 289 231 240 267 325 332 336 350 355 355 1 2 354 351 8 12 12 11 12 10 8 6 7 5 5 6 1 354 1
197 131 278 184 196 291 293 258 184 170 263 217 220 261 268 282 277 265 187 194 274 313 330 344 346 350 356 360 351 10 15 12 12 9 3 359 357 359 2 5 0 359 353 356
170 59 151 74 175 243 234 248 193 93 279 209 200 245 253 27 325 261 215 191 210 254 311 322 331 349 2 359 357 11 17 11 7 360 351 351 352 355 356 354 355 354 359 355
71 331 207 224 234 275 246 240 73 95 241 207 193 229 219 208 208 236 243 229 202 229 280 354 332 347 0 352 4 13 12 11 354 346 344 347 350 350 352 343 345 349 358 1
182 169 204 82 140 276 194 133 196 215 239 212 212 222 212 223 239 254 256 241 215 246 259 303 325 344 1 359 0 355 358 353 344 344 340 339 341 345 345 343 336 344 358 3
250 193 190 187 212 224 218 214 221 176 261 279 215 228 209 215 222 223 239 251 236 235 230 140 340 326 337 316 356 331 343 343 339 336 330 328 330 341 340 338 330 339 350 358
260 176 230 69 238 245 257 257 267 269 263 271 252 236 186 216 208 219 216 227 222 228 229 164 325 302 286 240 318 254 337 336 334 327 325 325 322 333 330 326 320 323 343 344
203 174 207 255 272 272 261 255 264 267 260 255 232 212 209 194 227 206 203 204 210 219 88 46 328 311 314 318 303 283 317 307 318 308 310 314 318 317 322 312 312 324 318 311
205 238 219 250 245 239 267 268 243 253 252 237 229 222 210 185 224 193 216 160 147 178 10 298 289 292 294 307 311 315 315 317 313 309 310 311 311 318 318 318 316 307 303 309